Regional Weather Roundup
Issued by NWS

Home | Current Version | Previous Version | Graphics & Text | Print | Product List | Glossary On
Versions: 1 2 3 4 5 6 7 8 9 10 11 12 13 14 15 16 17 18 19 20 21 22 23 24 25 26 27 28 29 30 31 32 33 34 35 36 37 38 39 40 41 42 43 44 45 46 47 48 49 50
000
ASUS43 KFSD 222302
RWRSD

WEATHER ROUNDUP FOR SOUTH DAKOTA
NATIONAL WEATHER SERVICE SIOUX FALLS SD
500 PM CST SUN JAN 22 2017

NOTE: "FAIR" INDICATES FEW OR NO CLOUDS BELOW 12,000 FEET WITH NO
SIGNIFICANT WEATHER AND/OR OBSTRUCTIONS TO VISIBILITY.


SDZ001>005-009-010-012>017-230000-
NORTHWEST AND NORTH CENTRAL SOUTH DAKOTA

CITY           SKY/WX    TMP DP  RH WIND       PRES   REMARKS
BUFFALO          N/A     28  23  81 NW8       29.76S WCI  20
FAITH            N/A     23  20  88 W7        29.84R WCI  15
MOBRIDGE       CLOUDY    30  25  81 NW12      29.82R WCI  20
$$

SDZ012>016-024>037-041>051-057-063-072>074-230000-
SOUTHWEST AND SOUTH CENTRAL SOUTH DAKOTA

CITY           SKY/WX    TMP DP  RH WIND       PRES   REMARKS
RAPID CTY ARPT CLEAR     38  24  57 S3        29.83F
PIERRE         CLOUDY    29  25  85 NW9       29.88R WCI  20
CUSTER         CLEAR     34  14  43 W12       29.81S WCI  25
ELLSWORTH AFB  CLEAR     39  23  52 S6        29.82S
PHILIP         CLEAR     29  25  85 E5        29.87R WCI  24
PINE RIDGE     CLEAR     40  26  57 W12       29.85S
SPEARFISH      FAIR      41  19  42 W10G16    29.81F
WINNER         FAIR      34  25  69 N12       29.88R WCI  25
$$

SDZ004>011-016>023-039-040-230000-
NORTHEAST SOUTH DAKOTA

CITY           SKY/WX    TMP DP  RH WIND       PRES   REMARKS
ABERDEEN       CLOUDY    30  25  81 NW13      29.83R WCI  20
WATERTOWN      CLOUDY    29  27  92 NW10      29.78R WCI  20
BROOKINGS      CLOUDY    29  27  92 NW14      29.79R WCI  18
SISSETON         N/A     34  31  88 NW8       29.78R WCI  27
$$

SDZ017-020-022-023-036>040-048>070-230000-
SOUTHEAST SOUTH DAKOTA

CITY           SKY/WX    TMP DP  RH WIND       PRES   REMARKS
SIOUX FALLS    CLOUDY    30  28  92 NW16G22   29.83R FOG     WCI  19
HURON          CLOUDY    30  27  88 NW15      29.85S WCI  19
CHAMBERLAIN    CLOUDY    32  28  87 NW17G24   29.88R WCI  21
MITCHELL       CLOUDY    32  28  85 NW17      29.87R WCI  21
YANKTON        CLEAR     32  27  80 NW13      29.85R WCI  22
$$

ABBREVIATIONS USED IN REMARKS
   TC - TEMPERATURE IN CELSIUS
  WCI - WIND CHILL INDEX
   HX - HEAT INDEX
  VSB - VISIBILITY





USA.gov is the U.S. government's official web portal to all federal, state and local government web resources and services.